This demonstration page uses our WeatherBlox Daily Observations layout. Learn more.

Left ArrowRight Arrow

Hourly Observations for August 24, 2022

Temp ( °F °C ) Dew Point ( °F °C ) Humidity (%) Winds ( mph kmh ) Pressure ( in mb ) Visibility ( mi km ) Precip ( " mm )
12:55 am 00:55 Mostly Cloudy 73 22.8 63 17.2 71 71 S 5 7 29.98 1015 10 16 0.00 0.00
1:55 am 01:55 Clear 72 22.4 63 17.3 73 73 S 7 11 29.99 1016 10 16 0.00 0.00
2:55 am 02:55 Clear 71 21.9 63 17 74 74 S 3 6 29.99 1015 10 16 0.00 0.00
3:55 am 03:55 Mostly Clear 71 21.5 62 16.9 75 75 S 3 6 30.01 1016 10 16 0.00 0.00
4:55 am 04:55 Mostly Clear 70 21 62 16.6 76 76 S 7 11 30.01 1016 10 16 0.00 0.00
5:55 am 05:55 Mostly Cloudy 70 21 61 16.2 74 74 S 3 6 30.02 1017 10 16 0.00 0.00
6:55 am 06:55 Mostly Cloudy 70 21.3 61 16.2 73 73 Calm 30.04 1017 10 16 0.00 0.00
7:55 am 07:55 Cloudy 72 22.1 62 16.4 70 70 SW 3 6 30.06 1018 10 16 0.00 0.00
8:55 am 08:55 Cloudy 73 22.6 62 16.6 69 69 S 6 9 30.07 1018 10 16 0.00 0.00
9:55 am 09:55 Mostly Cloudy 74 23.6 62 16.6 65 65 Calm 30.06 1018 10 16 0.00 0.00
10:55 am 10:55 Partly Cloudy 78 25.8 63 17.2 59 59 W 6 9 30.08 1019 10 16 0.00 0.00
11:55 am 11:55 Cloudy 82 27.5 63 17 53 53 W 6 9 30.06 1018 10 16 0.00 0.00
12:55 pm 12:55 Cloudy 83 28.2 63 17.1 51 51 WSW 7 11 30.05 1018 10 16 0.00 0.00
1:55 pm 13:55 Mostly Cloudy 87 30.7 63 17 44 44 WSW 7 11 30.04 1017 10 16 0.00 0.00
2:55 pm 14:55 Partly Cloudy 89 31.9 62 16.6 40 40 W 8 13 30.01 1016 10 16 0.00 0.00
3:55 pm 15:55 Mostly Cloudy 88 31.3 60 15.3 38 38 W 8 13 30.01 1016 10 16 0.00 0.00
4:55 pm 16:55 Mostly Cloudy 91 32.7 63 17.2 40 40 W 7 11 29.94 1014 10 16 0.00 0.00
5:55 pm 17:55 Partly Cloudy 91 32.8 61 16.2 37 37 Calm 29.98 1015 10 16 0.00 0.00
6:55 pm 18:55 Mostly Sunny 89 31.8 61 16.1 39 39 WNW 5 7 29.98 1015 10 16 0.00 0.00
7:55 pm 19:55 Mostly Sunny 84 29 66 19 55 55 E 3 6 29.99 1016 10 16 0.00 0.00
8:55 pm 20:55 Partly Cloudy 80 26.9 67 19.5 64 64 Calm 30.00 1016 10 16 0.00 0.00
9:55 pm 21:55 Mostly Clear 79 26.1 67 19.5 67 67 ESE 3 6 30.02 1017 10 16 0.00 0.00
10:55 pm 22:55 Clear 78 25.7 65 18.4 64 64 SSE 3 6 30.03 1017 10 16 0.00 0.00
11:55 pm 23:55 Clear 76 24.4 65 18.5 70 70 SE 3 6 30.03 1017 10 16 0.00 0.00

Powered by AerisWeather